• In Russia
  • List of Countries
  • For 7 days
  • Water Temperature
  • Weather Map
  • Weather Widgets
  • user-avatar
    Login

    Hourly Weather Canberra

    Today, 25 May, Monday

    Time Temperature Precipitation Wind Pressure Humidity
    00:00 +6°C° 0 mm 2 mps 709 mmHg 87%
    01:00 +5°C° 0 mm 2 mps 709 mmHg 89%
    02:00 +5°C° 0 mm 2 mps 709 mmHg 88%
    03:00 +4°C° 0 mm 3 mps 709 mmHg 87%
    04:00 +4°C° 0 mm 3 mps 710 mmHg 85%
    05:00 +5°C° 0 mm 3 mps 710 mmHg 84%
    06:00 +5°C° 0 mm 3 mps 710 mmHg 82%
    07:00 +5°C° 0 mm 3 mps 711 mmHg 81%
    08:00 +6°C° 0 mm 4 mps 711 mmHg 74%
    09:00 +8°C° 0 mm 4 mps 711 mmHg 68%
    10:00 +10°C° 0 mm 5 mps 712 mmHg 61%
    11:00 +10°C° 0 mm 5 mps 712 mmHg 61%
    12:00 +12°C° 0 mm 5 mps 712 mmHg 60%
    13:00 +12°C° 0 mm 5 mps 712 mmHg 59%
    14:00 +12°C° 0 mm 4 mps 712 mmHg 60%
    15:00 +11°C° 0 mm 4 mps 712 mmHg 61%
    16:00 +11°C° 0 mm 4 mps 712 mmHg 61%
    17:00 +10°C° 0 mm 3 mps 712 mmHg 68%
    18:00 +8°C° 0 mm 3 mps 712 mmHg 74%
    19:00 +7°C° 0 mm 3 mps 713 mmHg 80%
    20:00 +5°C° 0 mm 3 mps 713 mmHg 82%
    21:00 +5°C° 0 mm 3 mps 713 mmHg 83%
    22:00 +5°C° 0 mm 3 mps 714 mmHg 85%
    23:00 +4°C° 0 mm 3 mps 714 mmHg 85%

    Tomorrow, 26 May, Tuesday

    Time Temperature Precipitation Wind Pressure Humidity
    00:00 +4°C° 0 mm 3 mps 714 mmHg 85%
    01:00 +4°C° 0 mm 3 mps 714 mmHg 86%
    02:00 +4°C° 0 mm 3 mps 714 mmHg 87%
    03:00 +4°C° 0 mm 3 mps 714 mmHg 89%
    04:00 +4°C° 0 mm 3 mps 714 mmHg 90%
    05:00 +3°C° 0 mm 3 mps 714 mmHg 91%
    06:00 +3°C° 0 mm 3 mps 714 mmHg 92%
    07:00 +4°C° 0 mm 2 mps 714 mmHg 93%
    08:00 +6°C° 0 mm 2 mps 714 mmHg 87%
    09:00 +8°C° 0 mm 2 mps 715 mmHg 80%
    10:00 +10°C° 0 mm 2 mps 715 mmHg 74%
    11:00 +11°C° 0 mm 3 mps 714 mmHg 72%
    12:00 +12°C° 0 mm 3 mps 714 mmHg 70%
    13:00 +14°C° 0 mm 3 mps 714 mmHg 68%
    14:00 +13°C° 0 mm 3 mps 713 mmHg 70%
    15:00 +13°C° 0 mm 3 mps 713 mmHg 72%
    16:00 +12°C° 0 mm 3 mps 713 mmHg 74%
    17:00 +12°C° 0 mm 2 mps 713 mmHg 80%
    18:00 +9°C° 0 mm 2 mps 714 mmHg 86%
    19:00 +9°C° 0 mm 1 mps 714 mmHg 92%
    20:00 +9°C° 0 mm 1 mps 714 mmHg 93%
    21:00 +8°C° 0 mm 1 mps 714 mmHg 94%
    22:00 +8°C° 0 mm 1 mps 714 mmHg 95%
    23:00 +7°C° 0 mm 1 mps 714 mmHg 95%

    Day after tomorrow, 27 May, Wednesday

    Time Temperature Precipitation Wind Pressure Humidity
    00:00 +7°C° 0 mm 1 mps 714 mmHg 96%
    01:00 +6°C° 0 mm 0 mps 714 mmHg 96%
    02:00 +6°C° 0 mm 0 mps 713 mmHg 96%
    03:00 +5°C° 0 mm 0 mps 713 mmHg 96%
    04:00 +5°C° 0 mm 0 mps 713 mmHg 96%
    05:00 +5°C° 0 mm 0 mps 713 mmHg 96%
    06:00 +5°C° 0 mm 0 mps 713 mmHg 96%
    07:00 +4°C° 0 mm 0 mps 713 mmHg 96%
    08:00 +7°C° 0 mm 0 mps 713 mmHg 89%
    09:00 +9°C° 0 mm 0 mps 713 mmHg 82%
    10:00 +11°C° 0 mm 0 mps 714 mmHg 75%
    11:00 +14°C° 0 mm 1 mps 713 mmHg 69%
    12:00 +15°C° 0 mm 1 mps 713 mmHg 64%
    13:00 +16°C° 0 mm 2 mps 712 mmHg 59%
    14:00 +16°C° 0.1 mm 2 mps 712 mmHg 63%
    15:00 +15°C° 0.1 mm 2 mps 712 mmHg 68%
    16:00 +14°C° 0.1 mm 2 mps 712 mmHg 72%
    17:00 +13°C° 0 mm 2 mps 712 mmHg 79%
    18:00 +11°C° 0 mm 1 mps 712 mmHg 85%
    19:00 +9°C° 0 mm 1 mps 712 mmHg 92%
    20:00 +9°C° 0 mm 1 mps 712 mmHg 92%
    21:00 +8°C° 0 mm 1 mps 712 mmHg 92%
    22:00 +7°C° 0 mm 0 mps 712 mmHg 93%
    23:00 +6°C° 0 mm 0 mps 712 mmHg 92%

    28 May, Thursday

    Time Temperature Precipitation Wind Pressure Humidity
    00:00 +6°C° 0 mm 0 mps 712 mmHg 92%
    01:00 +6°C° 0 mm 0 mps 712 mmHg 92%
    02:00 +6°C° 0 mm 0 mps 712 mmHg 92%
    03:00 +5°C° 0 mm 0 mps 712 mmHg 92%
    04:00 +5°C° 0 mm 0 mps 712 mmHg 92%
    05:00 +5°C° 0 mm 0 mps 712 mmHg 93%
    06:00 +5°C° 0 mm 0 mps 713 mmHg 93%
    07:00 +5°C° 0 mm 0 mps 713 mmHg 94%
    08:00 +7°C° 0 mm 0 mps 713 mmHg 87%
    09:00 +10°C° 0 mm 1 mps 714 mmHg 80%
    10:00 +12°C° 0 mm 1 mps 714 mmHg 73%
    11:00 +14°C° 0 mm 1 mps 714 mmHg 66%
    12:00 +15°C° 0 mm 2 mps 714 mmHg 58%
    13:00 +16°C° 0 mm 2 mps 713 mmHg 50%
    14:00 +16°C° 0 mm 2 mps 713 mmHg 54%
    15:00 +15°C° 0 mm 2 mps 713 mmHg 58%
    16:00 +14°C° 0 mm 2 mps 713 mmHg 62%
    17:00 +12°C° 0 mm 1 mps 713 mmHg 71%
    18:00 +10°C° 0 mm 1 mps 714 mmHg 80%
    19:00 +8°C° 0 mm 1 mps 714 mmHg 89%
    20:00 +8°C° 0 mm 1 mps 715 mmHg 90%
    21:00 +7°C° 0 mm 1 mps 715 mmHg 91%
    22:00 +7°C° 0 mm 1 mps 715 mmHg 92%
    23:00 +6°C° 0 mm 1 mps 715 mmHg 92%

    29 May, Friday

    Time Temperature Precipitation Wind Pressure Humidity
    00:00 +6°C° 0 mm 1 mps 715 mmHg 92%
    01:00 +6°C° 0 mm 1 mps 715 mmHg 93%
    02:00 +6°C° 0 mm 1 mps 715 mmHg 93%
    03:00 +4°C° 0 mm 0 mps 715 mmHg 93%
    04:00 +4°C° 0 mm 0 mps 715 mmHg 94%
    05:00 +4°C° 0 mm 0 mps 716 mmHg 94%
    06:00 +4°C° 0 mm 0 mps 716 mmHg 94%
    07:00 +4°C° 0 mm 0 mps 717 mmHg 94%
    08:00 +6°C° 0 mm 0 mps 717 mmHg 87%
    09:00 +9°C° 0 mm 0 mps 717 mmHg 80%
    10:00 +11°C° 0 mm 0 mps 717 mmHg 72%
    11:00 +13°C° 0 mm 1 mps 717 mmHg 67%
    12:00 +14°C° 0 mm 1 mps 716 mmHg 63%
    13:00 +15°C° 0 mm 2 mps 716 mmHg 58%
    14:00 +15°C° 0 mm 2 mps 716 mmHg 60%
    15:00 +14°C° 0 mm 2 mps 716 mmHg 62%
    16:00 +14°C° 0 mm 2 mps 715 mmHg 64%
    17:00 +12°C° 0 mm 1 mps 715 mmHg 72%
    18:00 +10°C° 0 mm 1 mps 715 mmHg 80%
    19:00 +8°C° 0 mm 1 mps 716 mmHg 88%
    20:00 +6°C° 0 mm 0 mps 716 mmHg 90%
    21:00 +6°C° 0 mm 0 mps 716 mmHg 91%
    22:00 +5°C° 0 mm 0 mps 716 mmHg 92%
    23:00 +5°C° 0 mm 0 mps 715 mmHg 92%

    30 May, Saturday

    Time Temperature Precipitation Wind Pressure Humidity
    00:00 +4°C° 0 mm 0 mps 715 mmHg 93%
    01:00 +4°C° 0 mm 0 mps 715 mmHg 94%
    02:00 +4°C° 0 mm 0 mps 715 mmHg 94%
    03:00 +3°C° 0 mm 0 mps 714 mmHg 94%
    04:00 +3°C° 0 mm 0 mps 714 mmHg 94%
    05:00 +3°C° 0 mm 0 mps 714 mmHg 93%
    06:00 +2°C° 0 mm 0 mps 714 mmHg 93%
    07:00 +2°C° 0 mm 0 mps 714 mmHg 93%
    08:00 +6°C° 0 mm 1 mps 714 mmHg 84%
    09:00 +8°C° 0 mm 1 mps 714 mmHg 75%
    10:00 +10°C° 0 mm 2 mps 714 mmHg 67%
    11:00 +11°C° 0 mm 3 mps 714 mmHg 60%
    12:00 +13°C° 0 mm 3 mps 713 mmHg 54%
    13:00 +14°C° 0 mm 4 mps 713 mmHg 48%
    14:00 +14°C° 0 mm 4 mps 712 mmHg 52%
    15:00 +13°C° 0 mm 4 mps 712 mmHg 57%
    16:00 +12°C° 0 mm 4 mps 712 mmHg 61%
    17:00 +11°C° 0 mm 3 mps 711 mmHg 70%
    18:00 +9°C° 0 mm 2 mps 711 mmHg 80%
    19:00 +7°C° 0 mm 2 mps 711 mmHg 89%
    20:00 +7°C° 0 mm 2 mps 711 mmHg 90%
    21:00 +7°C° 0 mm 2 mps 711 mmHg 91%
    22:00 +7°C° 0 mm 2 mps 711 mmHg 92%
    23:00 +7°C° 0 mm 3 mps 711 mmHg 92%
    Show more